| time (UTC) | temp F | wind direction | speed knots | gust knots | rain 1hr in | rain 24hr in | rain mn in | humidity % | barometer mb |
| 20260506024520 | 57 | 35 | 0.0 | 2.6 | 0.00 | 0.33 | 0.00 | 91 | 1011.3 |
| 20260506024006 | 57 | 24 | 0.0 | 1.7 | 0.00 | 0.33 | 0.00 | 91 | 1011.3 |
| 20260506023506 | 57 | 24 | 0.0 | 1.7 | 0.00 | 0.33 | 0.00 | 91 | 1011.3 |
| 20260506023006 | 56 | 24 | 0.0 | 1.7 | 0.00 | 0.33 | 0.00 | 91 | 1011.5 |
| 20260506022505 | 56 | 24 | 0.0 | 1.7 | 0.00 | 0.33 | 0.00 | 91 | 1011.5 |
| 20260506022008 | 56 | 24 | 0.0 | 1.7 | 0.00 | 0.33 | 0.00 | 91 | 1011.5 |
| 20260506021509 | 56 | 24 | 0.0 | 1.7 | 0.00 | 0.33 | 0.00 | 91 | 1011.5 |
| 20260506021004 | 57 | 24 | 0.0 | 1.7 | 0.00 | 0.33 | 0.00 | 91 | 1011.5 |
| 20260506020503 | 57 | 24 | 0.0 | 1.7 | 0.00 | 0.33 | 0.00 | 91 | 1011.6 |
| 20260506020005 | 57 | 24 | 0.0 | 1.7 | 0.00 | 0.33 | 0.00 | 91 | 1011.6 |
| 20260506015506 | 57 | 24 | 0.0 | 1.7 | 0.00 | 0.33 | 0.00 | 91 | 1011.7 |
| 20260506015004 | 57 | 24 | 0.0 | 1.7 | 0.00 | 0.33 | 0.00 | 91 | 1011.6 |
| 20260506014508 | 57 | 24 | 0.0 | 1.7 | 0.00 | 0.33 | 0.00 | 91 | 1011.5 |
| 20260506014004 | 57 | 24 | 0.0 | 1.7 | 0.00 | 0.33 | 0.00 | 91 | 1011.7 |
| 20260506013503 | 57 | 24 | 0.0 | 1.7 | 0.00 | 0.33 | 0.00 | 91 | 1011.7 |
| 20260506013003 | 57 | 24 | 0.0 | 1.7 | 0.00 | 0.33 | 0.00 | 91 | 1011.7 |
| 20260506012503 | 56 | 24 | 0.0 | 1.7 | 0.00 | 0.33 | 0.00 | 91 | 1011.6 |
| 20260506012003 | 56 | 24 | 0.0 | 1.7 | 0.00 | 0.33 | 0.00 | 91 | 1011.6 |
| 20260506011503 | 56 | 24 | 0.0 | 2.6 | 0.00 | 0.33 | 0.00 | 91 | 1011.6 |
| 20260506011001 | 56 | 24 | 0.0 | 2.6 | 0.00 | 0.33 | 0.00 | 91 | 1011.5 |
| 20260506010504 | 56 | 21 | 0.0 | 2.6 | 0.00 | 0.33 | 0.00 | 91 | 1011.6 |
| 20260506010001 | 56 | 360 | 0.9 | 2.6 | 0.00 | 0.33 | 0.00 | 91 | 1011.6 |
| 20260506005501 | 56 | 360 | 0.0 | 2.6 | 0.00 | 0.33 | 0.00 | 91 | 1011.5 |
| 20260506005002 | 56 | 360 | 0.9 | 2.6 | 0.00 | 0.33 | 0.00 | 91 | 1011.5 |
| 20260506004501 | 56 | 350 | 0.0 | 2.6 | 0.00 | 0.33 | 0.00 | 91 | 1011.6 |
| 20260506004100 | 56 | 288 | 0.9 | 1.7 | 0.00 | 0.33 | 0.00 | 91 | 1011.6 |
| 20260506003600 | 56 | 288 | 0.0 | 1.7 | 0.00 | 0.33 | 0.00 | 91 | 1011.7 |
| 20260506003100 | 56 | 288 | 0.9 | 1.7 | 0.00 | 0.33 | 0.00 | 91 | 1011.6 |
| 20260506002601 | 56 | 288 | 0.0 | 1.7 | 0.00 | 0.33 | 0.00 | 91 | 1011.6 |
| 20260506002100 | 56 | 288 | 0.0 | 1.7 | 0.00 | 0.33 | 0.00 | 91 | 1011.7 |
| 20260506001604 | 56 | 288 | 0.0 | 1.7 | 0.00 | 0.33 | 0.00 | 91 | 1011.7 |
| 20260506001059 | 56 | 288 | 0.0 | 1.7 | 0.00 | 0.33 | 0.00 | 91 | 1011.7 |
| 20260506000600 | 56 | 288 | 0.0 | 1.7 | 0.00 | 0.33 | 0.00 | 91 | 1011.7 |
| 20260506000119 | 56 | 288 | 0.0 | 1.7 | 0.00 | 0.33 | 0.00 | 91 | 1011.8 |
| 20260505235600 | 56 | 288 | 0.0 | 0.0 | 0.00 | 0.33 | 0.00 | 91 | 1011.9 |
| 20260505235056 | 56 | 288 | 0.0 | 0.0 | 0.00 | 0.33 | 0.00 | 91 | 1012.0 |
| 20260505234557 | 56 | 288 | 0.0 | 0.0 | 0.00 | 0.33 | 0.00 | 91 | 1012.1 |
| 20260505234056 | 56 | 288 | 0.0 | 0.0 | 0.00 | 0.33 | 0.00 | 91 | 1012.1 |
| 20260505233555 | 56 | 288 | 0.0 | 0.0 | 0.00 | 0.33 | 0.00 | 91 | 1012.1 |
| 20260505233059 | 56 | 288 | 0.0 | 0.9 | 0.00 | 0.33 | 0.00 | 91 | 1012.3 |
| 20260505232553 | 56 | 288 | 0.0 | 1.7 | 0.00 | 0.33 | 0.00 | 91 | 1012.2 |
| 20260505232055 | 56 | 288 | 0.0 | 1.7 | 0.00 | 0.33 | 0.00 | 91 | 1012.3 |
| 20260505231606 | 56 | 288 | 0.0 | 1.7 | 0.00 | 0.33 | 0.00 | 91 | 1012.4 |
| 20260505231054 | 56 | 288 | 0.0 | 0.0 | 0.00 | 0.33 | 0.00 | 91 | 1012.3 |
| 20260505230552 | 56 | 288 | 0.0 | 0.9 | 0.00 | 0.33 | 0.00 | 91 | 1012.3 |
| 20260505230104 | 56 | 288 | 0.0 | 0.9 | 0.00 | 0.33 | 0.00 | 91 | 1012.3 |
| 20260505225554 | 56 | 288 | 0.0 | 1.7 | 0.00 | 0.33 | 0.00 | 91 | 1012.3 |
| 20260505225052 | 56 | 288 | 0.0 | 1.7 | 0.00 | 0.33 | 0.00 | 91 | 1012.4 |
| 20260505224552 | 56 | 288 | 0.0 | 1.7 | 0.00 | 0.33 | 0.00 | 91 | 1012.4 |
| 20260505224051 | 56 | 288 | 0.0 | 1.7 | 0.00 | 0.33 | 0.00 | 91 | 1012.4 |
| 20260505223553 | 56 | 288 | 0.0 | 1.7 | 0.00 | 0.33 | 0.00 | 91 | 1012.5 |
| 20260505223050 | 56 | 288 | 0.0 | 1.7 | 0.00 | 0.33 | 0.00 | 91 | 1012.5 |
| 20260505222550 | 56 | 279 | 0.0 | 1.7 | 0.00 | 0.33 | 0.00 | 91 | 1012.6 |
| 20260505222050 | 56 | 279 | 0.0 | 1.7 | 0.00 | 0.33 | 0.00 | 91 | 1012.6 |
| 20260505221557 | 56 | 279 | 0.0 | 0.0 | 0.00 | 0.33 | 0.00 | 91 | 1012.6 |
| 20260505221048 | 56 | 279 | 0.0 | 1.7 | 0.00 | 0.33 | 0.00 | 91 | 1012.5 |
| 20260505220549 | 56 | 279 | 0.0 | 1.7 | 0.00 | 0.33 | 0.00 | 91 | 1012.5 |
| 20260505220047 | 56 | 279 | 0.0 | 1.7 | 0.00 | 0.33 | 0.00 | 91 | 1012.6 |
| 20260505215547 | 56 | 279 | 0.0 | 1.7 | 0.00 | 0.33 | 0.33 | 91 | 1012.6 |
| 20260505215046 | 56 | 279 | 0.0 | 1.7 | 0.00 | 0.33 | 0.33 | 91 | 1012.6 |
| 20260505214546 | 56 | 279 | 0.0 | 0.0 | 0.00 | 0.33 | 0.33 | 91 | 1012.6 |
| 20260505214049 | 56 | 279 | 0.0 | 0.0 | 0.01 | 0.33 | 0.33 | 91 | 1012.7 |
| 20260505213547 | 56 | 279 | 0.0 | 1.7 | 0.01 | 0.33 | 0.33 | 91 | 1012.8 |
| 20260505213046 | 56 | 279 | 0.0 | 1.7 | 0.01 | 0.33 | 0.33 | 91 | 1012.7 |
| 20260505212546 | 56 | 279 | 0.0 | 1.7 | 0.01 | 0.33 | 0.33 | 91 | 1012.8 |
| 20260505212046 | 56 | 279 | 0.0 | 1.7 | 0.02 | 0.33 | 0.33 | 91 | 1012.8 |
| 20260505211546 | 56 | 279 | 0.9 | 1.7 | 0.02 | 0.33 | 0.33 | 91 | 1012.9 |
| 20260505211047 | 56 | 275 | 0.0 | 0.0 | 0.02 | 0.33 | 0.33 | 91 | 1013.0 |
| 20260505210545 | 56 | 275 | 0.0 | 0.0 | 0.02 | 0.33 | 0.33 | 91 | 1013.0 |
| 20260505210045 | 56 | 275 | 0.0 | 0.0 | 0.02 | 0.33 | 0.33 | 91 | 1013.0 |
| 20260505205548 | 56 | 275 | 0.0 | 0.9 | 0.03 | 0.33 | 0.33 | 91 | 1012.9 |
| 20260505205044 | 56 | 275 | 0.0 | 1.7 | 0.04 | 0.33 | 0.33 | 91 | 1013.0 |
| 20260505204550 | 56 | 275 | 0.0 | 1.7 | 0.06 | 0.33 | 0.33 | 91 | 1013.0 |
| 20260505204045 | 56 | 275 | 0.0 | 1.7 | 0.05 | 0.32 | 0.32 | 91 | 1013.0 |
| 20260505203545 | 56 | 270 | 0.0 | 1.7 | 0.05 | 0.32 | 0.32 | 91 | 1013.0 |
| 20260505203054 | 56 | 270 | 0.0 | 1.7 | 0.05 | 0.32 | 0.32 | 91 | 1013.1 |
| 20260505202545 | 56 | 42 | 0.0 | 1.7 | 0.05 | 0.32 | 0.32 | 91 | 1013.2 |
| 20260505202045 | 56 | 42 | 0.0 | 0.0 | 0.04 | 0.31 | 0.31 | 91 | 1013.1 |
| 20260505201547 | 56 | 42 | 0.0 | 1.7 | 0.05 | 0.31 | 0.31 | 91 | 1013.0 |
| 20260505201044 | 56 | 42 | 0.0 | 1.7 | 0.05 | 0.31 | 0.31 | 91 | 1013.0 |
| 20260505200544 | 56 | 42 | 0.0 | 1.7 | 0.05 | 0.31 | 0.31 | 91 | 1013.0 |
| 20260505200046 | 56 | 42 | 0.0 | 1.7 | 0.05 | 0.31 | 0.31 | 91 | 1013.1 |
| 20260505195544 | 56 | 42 | 0.0 | 1.7 | 0.03 | 0.30 | 0.30 | 91 | 1013.0 |
| 20260505195045 | 56 | 42 | 0.0 | 1.7 | 0.02 | 0.28 | 0.28 | 91 | 1012.9 |
| 20260505194553 | 56 | 42 | 0.0 | 1.7 | 0.01 | 0.28 | 0.28 | 91 | 1012.9 |
| 20260505194042 | 56 | 42 | 0.0 | 1.7 | 0.02 | 0.28 | 0.28 | 91 | 1012.9 |
| 20260505193541 | 56 | 42 | 0.0 | 1.7 | 0.02 | 0.28 | 0.28 | 91 | 1013.0 |
| 20260505193042 | 56 | 42 | 0.0 | 1.7 | 0.02 | 0.28 | 0.28 | 91 | 1013.0 |
| 20260505192541 | 55 | 42 | 0.0 | 1.7 | 0.02 | 0.28 | 0.28 | 91 | 1012.9 |
| 20260505192041 | 56 | 42 | 0.9 | 1.7 | 0.02 | 0.28 | 0.28 | 91 | 1012.9 |
| 20260505191554 | 56 | 42 | 0.0 | 1.7 | 0.02 | 0.27 | 0.27 | 91 | 1012.8 |
| 20260505191041 | 55 | 42 | 0.0 | 1.7 | 0.02 | 0.27 | 0.27 | 91 | 1012.9 |
| 20260505190542 | 55 | 42 | 0.0 | 1.7 | 0.02 | 0.27 | 0.27 | 91 | 1013.0 |
| 20260505190042 | 55 | 42 | 0.0 | 3.5 | 0.02 | 0.27 | 0.27 | 91 | 1012.9 |
| 20260505185545 | 56 | 42 | 0.9 | 3.5 | 0.02 | 0.27 | 0.27 | 91 | 1012.9 |
| 20260505185040 | 56 | 48 | 0.0 | 3.5 | 0.02 | 0.27 | 0.27 | 91 | 1012.8 |
| 20260505184540 | 56 | 46 | 0.0 | 1.7 | 0.02 | 0.27 | 0.27 | 91 | 1012.8 |
| 20260505184040 | 55 | 46 | 0.0 | 1.7 | 0.01 | 0.26 | 0.26 | 91 | 1012.8 |
| 20260505183539 | 55 | 46 | 0.0 | 1.7 | 0.00 | 0.25 | 0.25 | 91 | 1012.8 |
| 20260505183041 | 55 | 46 | 0.0 | 1.7 | 0.00 | 0.25 | 0.25 | 91 | 1012.8 |
| 20260505182540 | 55 | 46 | 0.0 | 0.0 | 0.00 | 0.25 | 0.25 | 91 | 1012.7 |
| 20260505182042 | 55 | 46 | 0.0 | 0.0 | 0.00 | 0.25 | 0.25 | 91 | 1012.7 |
| 20260505181540 | 55 | 46 | 0.0 | 1.7 | 0.00 | 0.25 | 0.25 | 91 | 1012.7 |
| 20260505181039 | 55 | 46 | 0.0 | 1.7 | 0.01 | 0.25 | 0.25 | 91 | 1012.7 |
| 20260505180538 | 55 | 46 | 0.0 | 2.6 | 0.01 | 0.25 | 0.25 | 91 | 1012.7 |
| 20260505180046 | 55 | 46 | 0.0 | 2.6 | 0.02 | 0.25 | 0.25 | 91 | 1012.7 |
| 20260505175541 | 55 | 28 | 0.0 | 1.7 | 0.02 | 0.25 | 0.25 | 91 | 1012.8 |
| 20260505175039 | 55 | 28 | 0.9 | 1.7 | 0.02 | 0.25 | 0.25 | 91 | 1012.7 |
| 20260505174540 | 55 | 28 | 0.0 | 1.7 | 0.02 | 0.25 | 0.25 | 91 | 1012.7 |
| 20260505174039 | 55 | 28 | 0.0 | 2.6 | 0.02 | 0.25 | 0.25 | 91 | 1012.7 |
| 20260505173538 | 55 | 28 | 0.0 | 2.6 | 0.02 | 0.25 | 0.25 | 91 | 1012.7 |
| 20260505173037 | 55 | 28 | 0.9 | 2.6 | 0.03 | 0.25 | 0.25 | 90 | 1012.7 |
| 20260505172538 | 55 | 53 | 0.0 | 2.6 | 0.04 | 0.25 | 0.25 | 90 | 1012.8 |
| 20260505172037 | 55 | 53 | 0.0 | 1.7 | 0.04 | 0.25 | 0.25 | 90 | 1012.8 |
| 20260505171538 | 55 | 53 | 0.0 | 1.7 | 0.05 | 0.25 | 0.25 | 91 | 1012.9 |
| 20260505171036 | 55 | 67 | 0.0 | 1.7 | 0.04 | 0.24 | 0.24 | 91 | 1012.8 |
| 20260505170535 | 55 | 67 | 0.0 | 1.7 | 0.04 | 0.24 | 0.24 | 91 | 1012.8 |
| 20260505170035 | 55 | 67 | 0.0 | 2.6 | 0.04 | 0.24 | 0.24 | 90 | 1012.9 |
| 20260505165535 | 55 | 68 | 0.0 | 2.6 | 0.04 | 0.24 | 0.24 | 90 | 1012.9 |
| 20260505165035 | 55 | 34 | 0.9 | 2.6 | 0.05 | 0.24 | 0.24 | 90 | 1012.9 |
| 20260505164535 | 56 | 28 | 0.9 | 2.6 | 0.06 | 0.24 | 0.24 | 90 | 1012.8 |
| 20260505164035 | 56 | 28 | 0.0 | 1.7 | 0.06 | 0.23 | 0.23 | 90 | 1012.9 |
| 20260505163535 | 56 | 28 | 0.0 | 2.6 | 0.06 | 0.23 | 0.23 | 90 | 1012.9 |
| 20260505163034 | 56 | 27 | 0.0 | 1.7 | 0.06 | 0.22 | 0.22 | 90 | 1013.0 |
| 20260505162533 | 56 | 27 | 0.0 | 1.7 | 0.05 | 0.21 | 0.21 | 90 | 1013.0 |
| 20260505162033 | 56 | 27 | 0.0 | 2.6 | 0.05 | 0.21 | 0.21 | 90 | 1013.1 |
| 20260505161532 | 56 | 27 | 0.9 | 2.6 | 0.05 | 0.20 | 0.20 | 90 | 1013.1 |
| 20260505161032 | 56 | 28 | 0.9 | 2.6 | 0.05 | 0.20 | 0.20 | 90 | 1013.2 |
| 20260505160533 | 56 | 33 | 0.0 | 2.6 | 0.05 | 0.20 | 0.20 | 90 | 1013.2 |
| 20260505153031 | 56 | 15 | 0.0 | 1.7 | 0.03 | 0.17 | 0.17 | 89 | 1013.4 |
| 20260505152529 | 56 | 15 | 0.0 | 1.7 | 0.04 | 0.17 | 0.17 | 89 | 1013.4 |
| 20260505152029 | 56 | 15 | 0.0 | 1.7 | 0.05 | 0.17 | 0.17 | 89 | 1013.4 |
| 20260505151533 | 56 | 15 | 0.0 | 1.7 | 0.05 | 0.16 | 0.16 | 89 | 1013.5 |
| 20260505151029 | 56 | 15 | 0.0 | 1.7 | 0.06 | 0.16 | 0.16 | 89 | 1013.4 |
| 20260505150529 | 56 | 15 | 0.0 | 1.7 | 0.06 | 0.16 | 0.16 | 89 | 1013.4 |
| 20260505140526 | 56 | 50 | 0.0 | 1.7 | 0.06 | 0.09 | 0.09 | 87 | 1013.9 |
| 20260505125023 | 58 | 186 | 0.0 | 1.7 | 0.02 | 0.03 | 0.03 | 82 | 1014.0 |
| 20260505124537 | 58 | 186 | 0.0 | 1.7 | 0.02 | 0.03 | 0.03 | 82 | 1014.0 |
| 20260505124022 | 59 | 169 | 0.0 | 1.7 | 0.01 | 0.02 | 0.02 | 81 | 1013.9 |
| 20260505123523 | 59 | 169 | 0.0 | 1.7 | 0.01 | 0.02 | 0.02 | 82 | 1014.1 |
| 20260505123022 | 59 | 169 | 0.0 | 1.7 | 0.00 | 0.02 | 0.02 | 80 | 1014.1 |
| 20260505122522 | 59 | 169 | 0.0 | 1.7 | 0.00 | 0.02 | 0.02 | 80 | 1014.0 |
| 20260505122022 | 59 | 169 | 0.0 | 1.7 | 0.00 | 0.02 | 0.02 | 80 | 1014.0 |
| 20260505121532 | 59 | 169 | 0.0 | 1.7 | 0.01 | 0.02 | 0.02 | 78 | 1014.1 |
| 20260505121023 | 59 | 157 | 0.0 | 1.7 | 0.01 | 0.02 | 0.02 | 78 | 1014.1 |
| 20260505120522 | 59 | 157 | 0.0 | 1.7 | 0.01 | 0.02 | 0.02 | 78 | 1014.2 |
| 20260505120023 | 60 | 157 | 0.0 | 1.7 | 0.01 | 0.02 | 0.02 | 78 | 1014.2 |
| 20260505115521 | 60 | 157 | 0.0 | 2.6 | 0.01 | 0.02 | 0.02 | 77 | 1014.3 |
| 20260505115021 | 60 | 202 | 0.0 | 2.6 | 0.02 | 0.02 | 0.02 | 77 | 1014.3 |
| 20260505114521 | 60 | 209 | 0.0 | 0.0 | 0.02 | 0.02 | 0.02 | 79 | 1014.2 |
| 20260505114021 | 60 | 209 | 0.0 | 0.0 | 0.02 | 0.02 | 0.02 | 80 | 1014.2 |
| 20260505113520 | 60 | 209 | 0.0 | 0.0 | 0.02 | 0.02 | 0.02 | 79 | 1014.2 |
| 20260505113020 | 60 | 209 | 0.0 | 0.0 | 0.02 | 0.02 | 0.02 | 79 | 1014.2 |
| 20260505112520 | 60 | 209 | 0.0 | 0.0 | 0.02 | 0.02 | 0.02 | 80 | 1014.2 |
| 20260505112020 | 61 | 209 | 0.0 | 1.7 | 0.02 | 0.02 | 0.02 | 80 | 1014.2 |
| 20260505111529 | 61 | 209 | 0.0 | 2.6 | 0.01 | 0.01 | 0.01 | 77 | 1014.2 |
| 20260505111020 | 61 | 207 | 0.0 | 1.7 | 0.01 | 0.01 | 0.01 | 78 | 1014.2 |
| 20260505110519 | 61 | 202 | 0.0 | 1.7 | 0.01 | 0.01 | 0.01 | 77 | 1014.2 |
| 20260505102019 | 63 | 198 | 0.0 | 1.7 | 0.00 | 0.00 | 0.00 | 72 | 1014.3 |
| 20260505101518 | 63 | 198 | 0.0 | 1.7 | 0.00 | 0.00 | 0.00 | 72 | 1014.2 |
| 20260505101018 | 63 | 198 | 0.0 | 3.5 | 0.00 | 0.00 | 0.00 | 71 | 1014.2 |
| 20260505100517 | 63 | 190 | 0.0 | 2.6 | 0.00 | 0.00 | 0.00 | 71 | 1014.1 |
| 20260505100028 | 63 | 194 | 0.0 | 2.6 | 0.00 | 0.00 | 0.00 | 73 | 1014.2 |
| 20260505095517 | 63 | 199 | 0.9 | 2.6 | 0.00 | 0.00 | 0.00 | 73 | 1014.2 |
| 20260505095016 | 63 | 202 | 0.0 | 2.6 | 0.00 | 0.00 | 0.00 | 74 | 1014.2 |
| 20260505094516 | 63 | 203 | 0.0 | 2.6 | 0.00 | 0.00 | 0.00 | 76 | 1014.2 |
| 20260505094015 | 63 | 139 | 0.0 | 1.7 | 0.00 | 0.00 | 0.00 | 76 | 1014.2 |
| 20260505093515 | 63 | 91 | 0.0 | 1.7 | 0.00 | 0.00 | 0.00 | 77 | 1014.2 |
| 20260505093024 | 63 | 86 | 0.0 | 1.7 | 0.00 | 0.00 | 0.00 | 77 | 1014.3 |
| 20260505092515 | 63 | 113 | 0.0 | 1.7 | 0.00 | 0.00 | 0.00 | 78 | 1014.3 |
| 20260505092015 | 63 | 98 | 0.0 | 2.6 | 0.00 | 0.00 | 0.00 | 78 | 1014.3 |
| 20260505091517 | 63 | 120 | 0.0 | 2.6 | 0.00 | 0.00 | 0.00 | 78 | 1014.4 |
| 20260505091016 | 62 | 22 | 0.0 | 2.6 | 0.00 | 0.00 | 0.00 | 78 | 1014.4 |
| 20260505090514 | 62 | 44 | 0.0 | 2.6 | 0.00 | 0.00 | 0.00 | 78 | 1014.4 |
| 20260505090014 | 62 | 111 | 0.0 | 2.6 | 0.00 | 0.00 | 0.00 | 78 | 1014.4 |
| 20260505085514 | 62 | 69 | 0.0 | 3.5 | 0.00 | 0.00 | 0.00 | 78 | 1014.4 |
| 20260505085017 | 62 | 89 | 0.0 | 3.5 | 0.00 | 0.00 | 0.00 | 78 | 1014.3 |
| 20260505084515 | 62 | 30 | 0.9 | 2.6 | 0.00 | 0.00 | 0.00 | 78 | 1014.4 |
| 20260505084013 | 62 | 82 | 0.0 | 3.5 | 0.00 | 0.00 | 0.00 | 78 | 1014.3 |
| 20260505083519 | 61 | 62 | 0.9 | 3.5 | 0.00 | 0.00 | 0.00 | 77 | 1014.3 |
| 20260505083015 | 61 | 71 | 1.7 | 4.3 | 0.00 | 0.00 | 0.00 | 77 | 1014.2 |
| 20260505082512 | 61 | 55 | 1.7 | 4.3 | 0.00 | 0.00 | 0.00 | 77 | 1014.2 |
| 20260505082012 | 61 | 65 | 0.9 | 3.5 | 0.00 | 0.00 | 0.00 | 77 | 1014.1 |
| 20260505081516 | 61 | 56 | 0.9 | 3.5 | 0.00 | 0.00 | 0.00 | 77 | 1014.0 |
| 20260505081012 | 61 | 55 | 0.9 | 4.3 | 0.00 | 0.00 | 0.00 | 76 | 1014.0 |
| 20260505080512 | 61 | 78 | 0.9 | 4.3 | 0.00 | 0.00 | 0.00 | 75 | 1014.0 |
| 20260505080012 | 61 | 67 | 0.0 | 2.6 | 0.00 | 0.00 | 0.00 | 75 | 1014.0 |
| 20260505075511 | 62 | 64 | 0.0 | 4.3 | 0.00 | 0.00 | 0.00 | 75 | 1014.0 |
| 20260505075011 | 62 | 33 | 1.7 | 4.3 | 0.00 | 0.00 | 0.00 | 74 | 1014.0 |
| 20260505074512 | 62 | 53 | 0.9 | 4.3 | 0.00 | 0.00 | 0.00 | 73 | 1013.9 |
| 20260505074011 | 62 | 57 | 0.9 | 4.3 | 0.00 | 0.00 | 0.00 | 73 | 1014.0 |
| 20260505073511 | 62 | 73 | 1.7 | 4.3 | 0.00 | 0.00 | 0.00 | 73 | 1014.0 |
| 20260505073012 | 63 | 38 | 1.7 | 7.8 | 0.00 | 0.00 | 0.00 | 73 | 1014.0 |
| 20260505072512 | 63 | 42 | 3.5 | 7.8 | 0.00 | 0.00 | 0.00 | 71 | 1014.0 |
| 20260505072009 | 62 | 28 | 1.7 | 5.2 | 0.00 | 0.00 | 0.00 | 71 | 1014.0 |
| 20260505071509 | 62 | 48 | 2.6 | 5.2 | 0.00 | 0.00 | 0.00 | 71 | 1014.1 |
| 20260505071008 | 60 | 17 | 1.7 | 4.3 | 0.00 | 0.00 | 0.00 | 73 | 1014.0 |
| 20260505070509 | 60 | 29 | 0.9 | 4.3 | 0.00 | 0.00 | 0.00 | 74 | 1014.0 |
| 20260505070004 | 60 | 34 | 0.9 | 4.3 | 0.00 | 0.00 | 0.00 | 73 | 1014.1 |
| 20260505065504 | 59 | 29 | 1.7 | 3.5 | 0.00 | 0.00 | 0.00 | 74 | 1014.0 |
| 20260505065005 | 59 | 36 | 0.9 | 3.5 | 0.00 | 0.00 | 0.00 | 74 | 1014.0 |
| 20260505064502 | 59 | 32 | 0.9 | 3.5 | 0.00 | 0.00 | 0.00 | 74 | 1014.0 |
| 20260505064003 | 59 | 46 | 0.9 | 2.6 | 0.00 | 0.00 | 0.00 | 74 | 1013.9 |
| 20260505063502 | 59 | 42 | 0.9 | 3.5 | 0.00 | 0.00 | 0.00 | 74 | 1013.9 |
| 20260505063003 | 59 | 42 | 0.9 | 3.5 | 0.00 | 0.00 | 0.00 | 74 | 1013.9 |
| 20260505062502 | 59 | 46 | 1.7 | 3.5 | 0.00 | 0.00 | 0.00 | 74 | 1013.8 |
| 20260505062002 | 59 | 28 | 0.9 | 3.5 | 0.00 | 0.00 | 0.00 | 74 | 1013.8 |
| 20260505061601 | 58 | 42 | 0.9 | 4.3 | 0.00 | 0.00 | 0.00 | 75 | 1013.9 |
| 20260505061059 | 58 | 35 | 1.7 | 4.3 | 0.00 | 0.00 | 0.00 | 75 | 1013.8 |
| 20260505060604 | 58 | 38 | 0.9 | 2.6 | 0.00 | 0.00 | 0.00 | 75 | 1013.7 |
| 20260505060100 | 58 | 50 | 0.9 | 2.6 | 0.00 | 0.00 | 0.00 | 76 | 1013.6 |
| 20260505055558 | 58 | 32 | 0.9 | 3.5 | 0.00 | 0.00 | 0.00 | 77 | 1013.7 |
| 20260505055057 | 58 | 42 | 1.7 | 3.5 | 0.00 | 0.00 | 0.00 | 78 | 1013.6 |
| 20260505054620 | 57 | 35 | 0.9 | 2.6 | 0.00 | 0.00 | 0.00 | 79 | 1013.6 |
| 20260505054101 | 57 | 44 | 0.0 | 2.6 | 0.00 | 0.00 | 0.00 | 79 | 1013.6 |
| 20260505053555 | 56 | 44 | 0.9 | 2.6 | 0.00 | 0.00 | 0.00 | 79 | 1013.6 |
| 20260505053055 | 56 | 27 | 0.0 | 1.7 | 0.00 | 0.00 | 0.00 | 80 | 1013.5 |
| 20260505052554 | 56 | 27 | 0.0 | 2.6 | 0.00 | 0.00 | 0.00 | 80 | 1013.6 |
| 20260505052052 | 56 | 27 | 0.9 | 2.6 | 0.00 | 0.00 | 0.00 | 80 | 1013.6 |
| 20260505051552 | 56 | 54 | 0.9 | 2.6 | 0.00 | 0.00 | 0.00 | 80 | 1013.6 |
| 20260505051052 | 56 | 90 | 0.0 | 1.7 | 0.00 | 0.00 | 0.00 | 81 | 1013.6 |
| 20260505050552 | 56 | 98 | 0.0 | 1.7 | 0.00 | 0.00 | 0.00 | 81 | 1013.5 |
| 20260505041600 | 55 | 104 | 0.0 | 1.7 | 0.00 | 0.00 | 0.00 | 83 | 1013.4 |
| 20260505041047 | 55 | 104 | 0.0 | 1.7 | 0.00 | 0.00 | 0.00 | 84 | 1013.4 |
| 20260505040547 | 54 | 104 | 0.0 | 1.7 | 0.00 | 0.00 | 0.00 | 84 | 1013.3 |
| 20260505040046 | 54 | 104 | 0.0 | 1.7 | 0.00 | 0.00 | 0.00 | 84 | 1013.3 |
| 20260505035545 | 54 | 104 | 0.0 | 0.0 | 0.00 | 0.00 | 0.00 | 84 | 1013.3 |
| 20260505035045 | 54 | 104 | 0.0 | 1.7 | 0.00 | 0.00 | 0.00 | 84 | 1013.3 |
| 20260505034545 | 54 | 104 | 0.0 | 1.7 | 0.00 | 0.00 | 0.00 | 84 | 1013.2 |
| 20260505034045 | 54 | 104 | 0.0 | 1.7 | 0.00 | 0.00 | 0.00 | 84 | 1013.3 |
| 20260505033545 | 54 | 104 | 0.0 | 1.7 | 0.00 | 0.00 | 0.00 | 84 | 1013.3 |
| 20260505033045 | 54 | 104 | 0.0 | 1.7 | 0.00 | 0.00 | 0.00 | 84 | 1013.3 |
| 20260505032545 | 54 | 104 | 0.0 | 1.7 | 0.00 | 0.00 | 0.00 | 84 | 1013.4 |
| 20260505032047 | 54 | 103 | 0.0 | 1.7 | 0.00 | 0.00 | 0.00 | 83 | 1013.4 |
| 20260505031543 | 55 | 104 | 0.0 | 0.0 | 0.00 | 0.00 | 0.00 | 83 | 1013.5 |
| 20260505031042 | 55 | 104 | 0.0 | 0.0 | 0.00 | 0.00 | 0.00 | 83 | 1013.6 |
| 20260505030545 | 55 | 104 | 0.0 | 0.0 | 0.00 | 0.00 | 0.00 | 83 | 1013.5 |
| 20260505030055 | 55 | 104 | 0.0 | 0.0 | 0.00 | 0.00 | 0.00 | 83 | 1013.5 |
| 20260505025542 | 55 | 104 | 0.0 | 0.0 | 0.00 | 0.00 | 0.00 | 83 | 1013.6 |
| 20260505025041 | 55 | 104 | 0.0 | 0.0 | 0.00 | 0.00 | 0.00 | 82 | 1013.6 |